Location: Bannatyne
(13.0833°N, 59.5333°W)
Time: 06:04:44
(UTC+00:00)

Envisat - Pass Details

Date: 21 June 2021
Orbit: 764 x 766 km, 98.2° (Epoch: 03 August)

Event Time Altitude Azimuth Distance (km) Brightness Sun altitude
Rises 08:37:36 0° 23° (NNE) 3,220 7.1 -13.0°
Reaches altitude 10° 08:40:01 10° 30° (NNE) 2,294 6.4 -12.4°
Maximum altitude 08:44:46 42° 101° (E) 1,081 4.2 -11.4°
Drops below altitude 10° 08:49:32 10° 171° (S) 2,292 5.3 -10.4°
Sets 08:51:56 0° 178° (S) 3,217 6.0 -9.9°
